Location: Thompson
(55.7500°N, 97.8670°W)
Time: 10:01:00
(UTC-05:00)

Daily predictions for brighter satellites

Satellite Brightness Start Highest point End
(mag) Time Altitude Azimuth Time Altitude Azimuth Time Altitude Azimuth
USA 234 4.2 21:25:13 10° SSE 21:31:19 40° SW 21:37:26 10° WNW
Cosmos 1862 3.3 21:30:00 10° N 21:34:03 80° ENE 21:38:05 10° SSE
Cosmos 1656 4.4 21:28:44 10° SW 21:34:14 59° NW 21:39:41 10° NNE
Cosmos 1331 Rocket 4.3 21:29:46 10° SSW 21:35:05 76° WNW 21:40:26 10° NNE
Helios 1B rocket 2.4 21:32:44 10° NNE 21:36:50 63° ESE 21:40:54 10° S
Lacrosse 4 Rocket 2.7 21:35:00 10° NW 21:38:59 38° WSW 21:43:01 10° S
Okean 2 Rocket 4.3 21:36:48 10° N 21:40:43 28° ENE 21:44:36 10° ESE
ATLAS 5 CENTAUR R/B 2.5 21:35:06 10° NW 21:40:49 75° SW 21:47:08 10° SE
SL-16 R/B 2.6 21:35:37 10° S 21:40:51 40° ESE 21:46:07 10° NE
USA 186 3.9 21:38:55 10° SSW 21:41:19 25° W 21:43:53 10° NW
Cosmos 1733 Rocket 3.2 21:39:58 10° NNW 21:44:27 82° W 21:48:55 10° S
Cosmos 1707 Rocket 4.0 21:41:03 10° SSW 21:45:28 68° WNW 21:49:54 10° N
SPOT 1/Viking Rocket 4.2 21:41:00 10° SE 21:45:53 41° ENE 21:50:45 10° N
Cosmos 839 Rocket 4.5 21:41:03 10° SW 21:48:00 72° NW 21:54:13 10° NE
MetOp-B 4.3 21:43:19 10° SSE 21:48:36 65° ENE 21:53:55 10° NNW
ERS-1 Rocket 3.0 21:43:58 10° SSE 21:49:00 86° ENE 21:54:04 10° NNW
NOSS 3-2 (C) 4.5 21:43:13 10° W 21:49:33 56° NNW 21:56:40 10° ENE
Cosmos 1655 Rocket 4.3 21:44:03 10° NNW 21:50:30 79° W 21:56:52 10° S
Cosmos 1634 Rocket 4.2 21:44:51 10° SSW 21:51:11 85° WNW 21:57:36 10° N
Intercosmos 25 Rocket 3.3 21:47:55 10° S 21:51:18 74° E 21:56:08 10° NNE
Cosmos 1939 Rocket 3.6 21:47:23 10° S 21:51:22 55° W 21:55:19 10° NNW
Cosmos 2278 Rocket 3.4 21:49:11 10° NNW 21:54:17 32° NE 21:59:21 10° E
Cosmos 1408 3.9 21:51:48 10° NNW 21:55:22 42° W 21:58:51 10° SSW
Cosmos 1862 Rocket 3.7 21:54:08 10° S 21:58:33 60° E 22:03:00 10° NNE
ARGOS 3.3 21:53:32 10° SSE 21:58:49 62° ENE 22:04:09 10° NNW
Cosmos 1777 Rocket 4.3 21:56:31 10° NNW 22:01:46 57° NE 22:06:40 12° SE
SeaSat 1 2.5 21:57:18 10° SE 22:02:15 86° SW 22:07:15 10° NW
Cosmos 1844 Rocket 3.0 21:58:25 10° NNW 22:03:56 56° NE 22:09:04 12° SE
CENTAUR R/B 2.9 21:57:45 10° WSW 22:04:13 78° NW 22:11:41 10° NE
Abrixas rocket 3.8 22:04:39 10° SSW 22:07:03 19° SSE 22:08:39 14° SE
Cosmos 1992 Rocket 4.2 22:03:30 10° S 22:08:35 53° ESE 22:13:41 10° NE
Okean 1-7 4.2 22:07:57 12° SE 22:11:16 27° E 22:14:59 10° NNE
Cosmos 2266 Rocket 4.0 22:05:08 10° N 22:11:23 75° ENE 22:17:43 10° SSE
Cosmos 2360 4.5 22:05:50 10° SW 22:11:36 78° NW 22:17:23 10° NNE
Terra 2.8 22:10:04 12° ESE 22:13:56 34° ENE 22:18:14 10° N
SL-08 RB Rocket 3.8 22:09:48 11° SSE 22:14:12 64° ENE 22:18:44 10° N
Cosmos 2242 Rocket 4.1 22:12:55 10° SSW 22:17:24 65° WNW 22:21:52 10° N
Cosmos 1703 Rocket 4.1 22:14:23 10° SSE 22:18:33 41° E 22:22:44 10° NNE
YAOGAN 11 4.2 22:14:17 10° SSE 22:18:40 80° WSW 22:23:03 10° NNW
CZ-4C R/B 3.0 22:18:24 10° NW 22:24:56 65° NNE 22:32:09 11° ESE
Cosmos 2221 Rocket 4.2 22:21:32 13° SSE 22:25:08 37° E 22:29:15 10° NNE
Molniya-1 3.2 22:22:59 10° SW 22:25:11 61° SE 22:28:35 10° ENE
DNEPR-1 R/B 4.2 22:20:37 10° WSW 22:25:57 68° NW 22:30:28 10° NE
Cosmos 1867 4.2 22:22:47 10° NW 22:28:03 49° SW 22:32:45 13° SSE
MOS 1-B Rocket 3.9 22:22:54 10° SSE 22:28:50 90° SW 22:34:28 10° NNW
Cosmos 2219 Rocket 3.9 22:28:37 13° ESE 22:30:01 14° E 22:32:42 10° ENE
Meteor 1-29 4.3 22:27:31 10° N 22:30:52 42° WNW 22:34:11 10° SW
Cosmos 2279 Rocket 4.3 22:26:09 10° SSW 22:32:24 73° WNW 22:38:39 10° N
Meteor 1-14 Rocket 4.3 22:27:02 10° NNW 22:32:40 81° WSW 22:38:21 10° S
USA 267 3.3 22:28:46 10° ENE 22:35:22 87° SSE 22:41:57 10° WSW
Cosmos 1697 Rocket 4.4 22:30:18 10° WSW 22:35:33 38° NW 22:40:49 10° NNE
CARTOSAT-1 4.1 22:32:33 17° SE 22:35:34 44° ENE 22:39:43 10° N
YAOGAN 6 4.4 22:33:05 10° SSW 22:36:19 29° W 22:39:33 10° NNW
Cosmos 2084 3.4 22:32:40 10° NW 22:36:28 63° NNE 22:39:19 17° ESE
H-2A R/B 1.9 22:33:27 15° SSE 22:37:40 78° ENE 22:42:36 10° NNW
Cosmos 968 Rocket 4.3 22:37:01 10° NW 22:42:00 47° WSW 22:46:52 11° S
Cosmos 2263 Rocket 3.7 22:39:24 10° NW 22:44:07 29° WSW 22:48:51 10° SSW
Cosmos 1536 4.4 22:42:41 10° N 22:45:57 23° ENE 22:48:02 16° ESE
ASTEX 1 3.9 22:43:30 19° SE 22:46:49 45° ENE 22:51:34 10° N
SPOT 5 3.3 22:43:24 10° S 22:48:07 57° WSW 22:52:40 10° NNW
Meteor 1-25 Rocket 4.3 22:42:40 10° NNW 22:48:20 81° WSW 22:53:06 14° S
Cosmos 2369 Rocket 4.5 22:47:32 10° NNW 22:51:30 19° NNE 22:55:29 10° ENE
Cosmos 1933 4.4 22:50:47 10° SSW 22:54:41 46° WNW 22:58:35 10° N
COSMOS 2428 3.5 22:52:07 18° SSE 22:55:25 32° ESE 23:00:25 10° NE
Meteor 2-10 Rocket 3.9 22:49:40 10° SSW 22:55:31 83° WNW 23:01:19 10° NNE
ATLAS 3B R/B 3.6 22:49:40 10° WNW 22:56:34 47° NNE 23:03:05 10° E
Cosmos 2322 Rocket 2.4 22:51:18 10° SW 22:56:55 74° NW 23:02:37 10° NNE
CZ-4C R/B 4.1 23:00:34 23° ESE 23:02:19 35° ENE 23:05:41 10° N
H-2A R/B 2.0 23:01:05 22° SSE 23:03:47 88° ENE 23:08:12 10° NNW
Cosmos 1844 3.7 23:00:47 10° NW 23:06:33 81° WSW 23:10:13 23° SSE
Cosmos 2360 Rocket 2.1 23:01:34 10° SSW 23:07:11 68° ESE 23:12:51 10° NE
Meteor 1-20 Rocket 4.5 23:02:19 10° NNW 23:07:49 67° W 23:12:18 16° S
Cosmos 1980 Rocket 3.9 23:03:24 10° WSW 23:08:39 36° NW 23:13:57 10° NNE
GENESIS II 4.2 23:05:00 10° SW 23:09:03 77° SE 23:13:07 10° NE
PSLV R/B 2.9 23:09:07 42° SE 23:09:56 72° ENE 23:12:45 10° N
Cosmos 2322 3.7 23:09:34 10° SSW 23:15:15 68° ESE 23:20:56 10° NE
Cosmos 1606 2.9 23:14:02 31° SSE 23:15:30 50° E 23:19:11 10° NNE
Cosmos 1937 Rocket 4.2 23:13:36 10° NNW 23:18:44 46° NE 23:21:55 21° ESE
Okean 2 Rocket 3.8 23:14:40 10° NNW 23:19:04 50° W 23:22:22 17° SSW
Cosmos 1633 2.5 23:16:06 10° N 23:19:48 83° E 23:21:17 34° SSE
S3M 4.4 23:16:52 23° SSE 23:20:21 46° E 23:26:16 10° NNE
IGS 5A 3.4 23:18:47 27° S 23:20:59 82° WSW 23:25:10 10° NNW
Cosmos 1300 Rocket 3.7 23:19:16 10° N 23:23:35 61° ENE 23:25:31 31° SE
SL-16 R/B 3.0 23:19:18 10° SW 23:24:53 54° NW 23:30:29 10° NNE
ATLAS 5 CENTAUR R/B 4.0 23:20:25 10° WNW 23:24:57 23° WSW 23:29:18 12° SSW
SPOT 1/Viking Rocket 4.5 23:21:00 13° SSW 23:25:17 43° W 23:30:17 10° NNW
Meteor 2-6 Rocket 4.4 23:22:10 21° S 23:26:08 63° E 23:32:01 10° NNE
Cosmos 1782 2.7 23:29:11 27° S 23:31:21 87° E 23:35:24 10° NNE
Cosmos 2333 Rocket 3.1 23:34:09 27° SE 23:35:51 32° ESE 23:40:53 10° NE
Cosmos 2333 4.4 23:33:39 22° S 23:37:11 53° ESE 23:42:48 10° NE
Cosmos 1898 Rocket 3.5 23:32:16 10° NNW 23:37:29 75° ENE 23:40:05 30° SE
Cosmos 2278 Rocket 2.2 23:33:17 10° NW 23:38:59 81° WSW 23:41:58 29° SSE
SeaSat 1 4.4 23:36:54 10° SSW 23:40:27 19° WSW 23:44:00 10° WNW
Cosmos 2237 Rocket 3.2 23:41:32 25° SE 23:42:44 27° ESE 23:47:27 10° NE
Timation 1 Rocket 4.3 23:36:56 10° NW 23:42:59 89° NE 23:46:14 29° SE
Abrixas rocket 4.4 23:40:34 10° WSW 23:41:21 14° SW 23:41:21 14° SW
deb Chang Zheng 4 3.5 23:41:33 10° NNE 23:46:00 80° ESE 23:48:09 30° S
Cosmos 1745 Rocket 4.0 23:40:07 10° NNW 23:46:28 87° W 23:50:11 27° S
Cosmos 1844 Rocket 3.6 23:42:35 10° NW 23:47:41 37° WSW 23:50:44 21° SSW
Okean 1-7 4.0 23:44:46 12° SW 23:48:40 47° WNW 23:52:58 10° N
Meteor 1-5 Rocket 4.2 23:45:43 10° NNW 23:51:17 74° ENE 23:54:04 31° SSE
Terra 2.6 23:48:56 23° SSW 23:51:36 46° W 23:56:13 10° NNW
Cosmos 1346 Rocket 2.8 23:51:31 44° SSE 23:52:30 61° E 23:56:27 10° NNE
Cosmos 2151 Rocket 4.4 23:48:16 10° NNW 23:52:31 45° W 23:54:48 24° SSW
Cosmos 1417 Rocket 4.5 23:48:34 22° S 23:52:53 88° E 23:59:18 10° NNE
SL-24 DEB 4.5 23:52:36 35° SE 23:54:19 56° ENE 23:58:53 10° N
Spot 4 3.9 23:52:16 32° S 23:54:28 70° WSW 23:59:16 10° NNW
Cosmos 1378 Rocket 4.2 23:53:54 34° ESE 23:54:54 39° E 23:59:03 10° NNE
